Tallahassee, FL

5:14 PM EDT on August 26, 2016 (GMT -0400)
Tallahassee Regional

Weather History for KTLH - November, 2013

Change the Weather History Date:

Saturday, November 23, 2013

  Actual Average Record
Temperature  
Mean Temperature 68 °F 58 °F  
Max Temperature 76 °F 71 °F 85 °F (1941)
Min Temperature 60 °F 46 °F 25 °F (1976)
Degree Days  
Heating Degree Days 0    
Month to date heating degree days 54  
Since 1 July heating degree days 81  
Cooling Degree Days 3    
Month to date cooling degree days 55  
Year to date cooling degree days 2795  
Growing Degree Days 18 (Base 50)    
Moisture  
Dew Point 61 °F    
Average Humidity 81    
Maximum Humidity 97    
Minimum Humidity 64    
Precipitation  
Precipitation 0.00 in 0.12 in 1.72 in (2014)
Month to date precipitation 0.83 2.61  
Year to date precipitation 58.32 54.44  
Sea Level Pressure  
Sea Level Pressure 30.13 in    
Wind  
Wind Speed 5 mph (NNW)    
Max Wind Speed 20 mph    
Max Gust Speed -    
Visibility 8 miles    
Events      
T = Trace of Precipitation, MM = Missing Value Source: NWS Daily Summary

Daily Weather History Graph

Daily Weather History Graph

Search for Another Location

Airport or City:

Trip Planner

Search our weather history database for the weather conditions in past years. The results will help you decide how hot, cold, wet, or windy it might be!

Date:

Astronomy

Nov. 23, 2013 Rise Set
Actual Time 7:10 AM EST 5:37 PM EST
Civil Twilight 6:44 AM EST 6:03 PM EST
Nautical Twilight 6:14 AM EST 6:32 PM EST
Astronomical Twilight 5:46 AM EST 7:01 PM EST
Moon 10:55 PM EST (11/23) 11:34 AM EST (11/23)
Length of Visible Light 11h 18m
Length of Day
10h 27m
Waning Gibbous, 70% of the Moon is Illuminated
Nov 23
Waning Gibbous
Nov 25
Last Quarter
Dec 2
New
Dec 9
First Quarter
Dec 17
Full

Hourly Weather History & Observations

Time (EST) Temp. Dew Point Humidity Pressure Visibility Wind Dir Wind Speed Gust Speed Precip Events Conditions
12:53 AM 64.0 °F 61.0 °F 90% 30.15 in 7.0 mi Calm Calm - N/A   Clear
1:18 AM 62.6 °F 60.8 °F 94% 30.15 in 2.0 mi Calm Calm - N/A   Scattered Clouds
1:22 AM 62.6 °F 60.8 °F 94% 30.15 in 1.2 mi Calm Calm - N/A   Mostly Cloudy
1:30 AM 62.6 °F 60.8 °F 94% 30.15 in 0.8 mi Calm Calm - N/A   Mist
1:53 AM 62.1 °F 60.1 °F 93% 30.14 in 1.8 mi Calm Calm - N/A   Overcast
1:56 AM 62.6 °F 60.8 °F 94% 30.15 in 3.0 mi Calm Calm - N/A   Overcast
2:12 AM 62.6 °F 60.8 °F 94% 30.15 in 7.0 mi Calm Calm - N/A   Scattered Clouds
2:53 AM 61.0 °F 59.0 °F 93% 30.14 in 8.0 mi Calm Calm - N/A   Mostly Cloudy
3:11 AM 60.8 °F 59.0 °F 94% 30.13 in 3.0 mi Calm Calm - N/A   Scattered Clouds
3:53 AM 61.0 °F 59.0 °F 93% 30.13 in 9.0 mi Calm Calm - N/A   Partly Cloudy
4:25 AM 60.8 °F 59.0 °F 94% 30.12 in 9.0 mi Calm Calm - N/A   Mostly Cloudy
4:53 AM 61.0 °F 59.0 °F 93% 30.13 in 8.0 mi Calm Calm - N/A   Overcast
5:43 AM 62.6 °F 60.8 °F 94% 30.13 in 10.0 mi Calm Calm - N/A   Mostly Cloudy
5:53 AM 63.0 °F 61.0 °F 93% 30.13 in 5.0 mi NNW 3.5 mph - N/A   Overcast
6:53 AM 64.0 °F 61.0 °F 90% 30.14 in 5.0 mi Calm Calm - N/A   Overcast
7:28 AM 62.6 °F 60.8 °F 94% 30.14 in 3.0 mi Calm Calm - N/A   Scattered Clouds
7:53 AM 63.0 °F 61.0 °F 93% 30.14 in 3.0 mi Calm Calm - N/A   Scattered Clouds
8:53 AM 68.0 °F 63.0 °F 84% 30.16 in 6.0 mi North 3.5 mph - N/A   Clear
9:31 AM 71.6 °F 64.4 °F 78% 30.16 in 10.0 mi North 5.8 mph - N/A   Mostly Cloudy
9:48 AM 71.6 °F 64.4 °F 78% 30.16 in 10.0 mi North 6.9 mph - N/A   Overcast
9:53 AM 72.0 °F 63.0 °F 73% 30.16 in 10.0 mi NNW 5.8 mph - N/A   Overcast
10:53 AM 73.0 °F 64.0 °F 73% 30.15 in 10.0 mi NNE 4.6 mph - N/A   Overcast
11:37 AM 73.4 °F 64.4 °F 73% 30.14 in 10.0 mi NNW 8.1 mph - N/A   Overcast
11:53 AM 73.9 °F 64.0 °F 71% 30.14 in 10.0 mi NNW 8.1 mph - N/A   Overcast
12:10 PM 73.4 °F 64.4 °F 73% 30.13 in 10.0 mi NW 3.5 mph - N/A   Overcast
12:46 PM 75.2 °F 64.4 °F 69% 30.11 in 10.0 mi NW 6.9 mph - N/A   Overcast
12:53 PM 75.9 °F 64.0 °F 67% 30.10 in 10.0 mi NNW 5.8 mph - N/A   Overcast
1:53 PM 75.0 °F 64.0 °F 69% 30.09 in 10.0 mi NW 10.4 mph - N/A   Overcast
2:53 PM 75.0 °F 62.1 °F 64% 30.08 in 10.0 mi NNW 9.2 mph - N/A   Overcast
3:53 PM 73.9 °F 62.1 °F 66% 30.08 in 10.0 mi North 8.1 mph - N/A   Overcast
4:12 PM 73.4 °F 62.6 °F 69% 30.08 in 10.0 mi North 10.4 mph - N/A   Overcast
4:53 PM 72.0 °F 61.0 °F 68% 30.09 in 10.0 mi NNW 11.5 mph - N/A   Overcast
5:53 PM 69.1 °F 60.1 °F 73% 30.10 in 10.0 mi NNW 9.2 mph - N/A   Overcast
6:53 PM 68.0 °F 60.1 °F 76% 30.12 in 10.0 mi North 8.1 mph - N/A   Overcast
7:53 PM 66.9 °F 59.0 °F 76% 30.13 in 10.0 mi North 9.2 mph - N/A   Scattered Clouds
8:53 PM 64.9 °F 57.0 °F 75% 30.15 in 10.0 mi NNW 13.8 mph - N/A   Overcast
9:40 PM 64.4 °F 53.6 °F 68% 30.15 in 10.0 mi North 9.2 mph - N/A   Partly Cloudy
9:53 PM 63.0 °F 53.1 °F 70% 30.15 in 10.0 mi Variable 3.5 mph - N/A   Partly Cloudy
10:53 PM 62.1 °F 54.0 °F 75% 30.16 in 10.0 mi North - - N/A   Partly Cloudy
11:53 PM 60.1 °F 51.1 °F 72% 30.16 in 10.0 mi NNW 10.4 mph - N/A   Clear